This demonstration page uses our WeatherBlox Daily Observations layout. Learn more.

Left ArrowRight Arrow

39.01783, -85.05884

Hourly Observations for February 23, 2019

Temp ( °F °C ) Dew Point ( °F °C ) Humidity (%) Winds ( mph kmh ) Pressure ( in mb ) Visibility ( mi km ) Precip ( " mm )
12:52 am 00:52 Cloudy 40 4.4 30 -1.1 68 68 E 9 15 30.23 1024 8 13 0.00 0.00
1:52 am 01:52 Mostly Cloudy 39 3.9 30 -1.1 70 70 E 8 13 30.20 1023 8 13 0.00 0.00
2:52 am 02:52 Cloudy 39 3.9 29 -1.7 67 67 ENE 9 15 30.18 1022 8 13 0.00 0.00
3:52 am 03:52 Cloudy 39 3.9 29 -1.7 67 67 ENE 9 15 30.14 1021 9 14 0.00 0.00
4:52 am 04:52 Cloudy 39 3.9 29 -1.7 67 67 ENE 7 11 30.13 1020 9 14 0.00 0.00
5:52 am 05:52 Cloudy 40 4.4 30 -1.1 68 68 E 6 9 30.13 1020 9 14 0.00 0.00
5:56 am 05:56 Cloudy 40 4.4 30 -1.1 68 68 E 7 11 30.15 1021 9 14 0.00 0.00
6:13 am 06:13 Cloudy 40 4.4 30 -1.1 68 68 E 6 9 30.15 1021 9 14 0.00 0.00
6:52 am 06:52 Cloudy 41 5 30 -1.1 65 65 E 8 13 30.10 1019 9 14 0.00 0.00
7:52 am 07:52 Cloudy 41 5 31 -0.6 67 67 ENE 9 15 30.06 1018 9 14 0.00 0.00
8:21 am 08:21 Cloudy 41 5 31 -0.6 67 67 E 6 9 30.12 1020 10 16 0.00 0.00
8:52 am 08:52 Cloudy 42 5.6 33 0.6 71 71 E 7 11 30.07 1018 10 16 0.00 0.00
9:52 am 09:52 Cloudy 43 6.1 35 1.7 74 74 E 10 17 30.02 1017 10 16 0.00 0.00
10:52 am 10:52 Cloudy 45 7.2 39 3.9 80 80 SE 6 9 30.04 1017 10 16 0.00 0.00
11:52 am 11:52 Cloudy 47 8.3 41 5 80 80 SE 10 17 30.00 1016 10 16 0.00 0.00
12:52 pm 12:52 Cloudy 48 8.9 43 6.1 83 83 SE 9 15 29.98 1015 9 14 0.00 0.00
1:52 pm 13:52 Cloudy 49 9.4 45 7.2 86 86 SE 6 9 29.92 1013 9 14 0.00 0.00
2:52 pm 14:52 Cloudy 50 10 46 7.8 86 86 SE 12 19 29.90 1013 10 16 0.00 0.00
3:40 pm 15:40 Cloudy 51 10.6 46 7.8 83 83 ESE 9 15 29.89 1012 10 16 0.00 0.00
3:52 pm 15:52 Cloudy 51 10.6 46 7.8 83 83 ESE 8 13 29.87 1012 10 16 0.00 0.00
4:34 pm 16:34 Cloudy 52 11.1 47 8.3 83 83 ESE 9 15 29.86 1011 10 16 0.00 0.00
4:52 pm 16:52 Cloudy 52 11.1 47 8.3 83 83 SE 10 17 29.85 1011 10 16 0.00 0.00
5:23 pm 17:23 Cloudy with Light Rain 52 11.1 48 8.9 86 86 ESE 5 7 29.87 1011 8 13 0.00 0.03
5:52 pm 17:52 Cloudy with Light Rain 52 11.1 49 9.4 89 89 SE 6 9 29.84 1011 7 11 0.03 0.76
6:02 pm 18:02 Cloudy with Light Rain 52 11.1 49 9.4 89 89 SE 3 6 29.85 1011 8 13 0.00 0.03
6:28 pm 18:28 Cloudy with Rain 52 11.1 50 10 93 93 S 6 9 29.86 1011 4 6 0.03 0.76
6:52 pm 18:52 Cloudy with Rain 53 11.7 51 10.6 93 93 S 10 17 29.85 1011 4 6 0.10 2.54
7:23 pm 19:23 Cloudy with Rain 54 12.2 52 11.1 93 93 SE 24 39 29.74 1007 5 8 0.09 2.29
7:35 pm 19:35 Cloudy with Light Rain 54 12.2 52 11.1 93 93 SE 24 39 29.72 1007 10 16 0.10 2.54
7:52 pm 19:52 Cloudy 55 12.8 52 11.1 90 90 SE 21 33 29.71 1006 10 16 0.11 2.79
8:30 pm 20:30 Cloudy with Light Rain 55 12.8 53 11.7 93 93 SSE 17 28 29.69 1005 10 16 0.00 0.03
8:52 pm 20:52 Cloudy 55 12.8 53 11.7 93 93 SE 20 31 29.66 1004 10 16 0.00 0.03
9:17 pm 21:17 Cloudy with Light Rain 56 13.3 54 12.2 93 93 SSE 18 30 29.68 1005 9 14 0.01 0.25
9:52 pm 21:52 Cloudy with Light Rain 56 13.3 53 11.7 90 90 SE 21 33 29.62 1003 6 10 0.11 2.79
10:20 pm 22:20 Cloudy with Light Rain 56 13.3 54 12.2 93 93 S 23 37 29.64 1004 6 10 0.06 1.52
10:22 pm 22:22 Cloudy with Light Rain 56 13.3 54 12.2 93 93 S 22 35 29.64 1004 7 11 0.06 1.52
10:52 pm 22:52 Cloudy with Light Rain 57 13.9 54 12.2 90 90 S 21 33 29.62 1003 10 16 0.08 2.03
11:20 pm 23:20 Cloudy 57 13.9 54 12.2 90 90 SSE 21 33 29.61 1003 10 16 0.05 1.27
11:37 pm 23:37 Cloudy with Light Rain 58 14.4 55 12.8 90 90 SSE 22 35 29.58 1002 10 16 0.05 1.27
11:41 pm 23:41 Cloudy 58 14.4 55 12.8 90 90 SSE 21 33 29.58 1002 10 16 0.05 1.27
11:52 pm 23:52 Cloudy 57 13.9 54 12.2 90 90 SSE 21 33 29.55 1001 10 16 0.05 1.27

Powered by AerisWeather